| time (UTC) | temp C | wind direction | speed KPH | gust KPH | rain 1hr cm | rain 24hr cm | rain mn cm | humidity % | barometer mb |
| 20260906194533 | 38 | 181 | 4.8 | 14.5 | 0.00 | 0.00 | 0.00 | 33 | 1008.7 |
| 20260906193030 | 37 | 181 | 0.0 | 6.4 | 0.00 | 0.00 | 0.00 | 37 | 1008.8 |
| 20260906191537 | 38 | 181 | 0.0 | 8.0 | 0.00 | 0.00 | 0.00 | 35 | 1009.2 |
| 20260906190029 | 38 | 181 | 1.6 | 4.8 | 0.00 | 0.00 | 0.00 | 34 | 1009.3 |
| 20260906184520 | 38 | 181 | 3.2 | 11.3 | 0.00 | 0.00 | 0.00 | 34 | 1009.5 |
| 20260906183020 | 37 | 181 | 1.6 | 6.4 | 0.00 | 0.00 | 0.00 | 35 | 1009.8 |
| 20260906181537 | 36 | 181 | 0.0 | 6.4 | 0.00 | 0.00 | 0.00 | 37 | 1010.1 |
| 20260906180021 | 37 | 181 | 0.0 | 6.4 | 0.00 | 0.00 | 0.00 | 36 | 1010.4 |
| 20260906174514 | 37 | 181 | 0.0 | 6.4 | 0.00 | 0.00 | 0.00 | 37 | 1010.7 |
| 20260906173013 | 37 | 181 | 1.6 | 6.4 | 0.00 | 0.00 | 0.00 | 35 | 1011.0 |
| 20260906171510 | 37 | 181 | 0.0 | 4.8 | 0.00 | 0.00 | 0.00 | 37 | 1011.2 |
| 20260906170007 | 36 | 181 | 0.0 | 6.4 | 0.00 | 0.00 | 0.00 | 39 | 1011.3 |
| 20260906164606 | 36 | 181 | 0.0 | 3.2 | 0.00 | 0.00 | 0.00 | 40 | 1011.5 |
| 20260906164500 | 36 | 181 | 0.0 | 8.0 | 0.00 | 0.00 | 0.00 | 40 | 1011.5 |
| 20260906163059 | 35 | 181 | 0.0 | 4.8 | 0.00 | 0.00 | 0.00 | 40 | 1011.5 |
| 20260906161553 | 35 | 181 | 0.0 | 6.4 | 0.00 | 0.00 | 0.00 | 42 | 1011.5 |
| 20260906160049 | 34 | 181 | 0.0 | 4.8 | 0.00 | 0.00 | 0.00 | 43 | 1011.5 |
| 20260906154545 | 33 | 181 | 0.0 | 4.8 | 0.00 | 0.00 | 0.00 | 45 | 1011.6 |
| 20260906153042 | 32 | 181 | 0.0 | 3.2 | 0.00 | 0.00 | 0.00 | 46 | 1011.4 |
| 20260906151536 | 32 | 181 | 0.0 | 4.8 | 0.00 | 0.00 | 0.00 | 48 | 1011.4 |
| 20260906150031 | 31 | 181 | 0.0 | 3.2 | 0.00 | 0.00 | 0.00 | 50 | 1011.4 |
| 20260906144527 | 30 | 181 | 0.0 | 1.6 | 0.00 | 0.00 | 0.00 | 53 | 1011.5 |
| 20260906143023 | 29 | 181 | 0.0 | 3.2 | 0.00 | 0.00 | 0.00 | 56 | 1011.4 |
| 20260906141528 | 28 | 181 | 0.0 | 4.8 | 0.00 | 0.00 | 0.00 | 60 | 1011.2 |
| 20260906140017 | 26 | 181 | 0.0 | 4.8 | 0.00 | 0.00 | 0.00 | 65 | 1011.4 |
| 20260906134520 | 25 | 181 | 0.0 | 0.0 | 0.00 | 0.00 | 0.00 | 70 | 1011.4 |
| 20260906133013 | 24 | 181 | 0.0 | 0.0 | 0.00 | 0.00 | 0.00 | 73 | 1011.3 |
| 20260906131512 | 23 | 181 | 0.0 | 0.0 | 0.00 | 0.00 | 0.00 | 75 | 1011.1 |
| 20260906130008 | 23 | 181 | 0.0 | 0.0 | 0.00 | 0.00 | 0.00 | 76 | 1010.8 |
| 20260906124506 | 23 | 181 | 0.0 | 0.0 | 0.00 | 0.00 | 0.00 | 75 | 1010.5 |
| 20260906123008 | 23 | 181 | 0.0 | 0.0 | 0.00 | 0.00 | 0.00 | 75 | 1010.5 |
| 20260906121502 | 22 | 181 | 0.0 | 0.0 | 0.00 | 0.00 | 0.00 | 75 | 1010.2 |
| 20260906120100 | 22 | 181 | 0.0 | 0.0 | 0.00 | 0.00 | 0.00 | 74 | 1010.1 |
| 20260906114601 | 23 | 181 | 0.0 | 0.0 | 0.00 | 0.00 | 0.00 | 74 | 1010.0 |
| 20260906113056 | 23 | 181 | 0.0 | 0.0 | 0.00 | 0.00 | 0.00 | 74 | 1009.8 |
| 20260906111555 | 23 | 181 | 0.0 | 0.0 | 0.00 | 0.00 | 0.00 | 73 | 1009.6 |
| 20260906110051 | 23 | 181 | 0.0 | 0.0 | 0.00 | 0.00 | 0.00 | 73 | 1009.5 |
| 20260906104557 | 23 | 181 | 0.0 | 0.0 | 0.00 | 0.00 | 0.00 | 72 | 1009.4 |
| 20260906103048 | 23 | 181 | 0.0 | 0.0 | 0.00 | 0.00 | 0.00 | 71 | 1009.4 |
| 20260906101548 | 24 | 181 | 0.0 | 0.0 | 0.00 | 0.00 | 0.00 | 70 | 1009.3 |
| 20260906100046 | 24 | 181 | 0.0 | 0.0 | 0.00 | 0.00 | 0.00 | 70 | 1009.3 |
| 20260906094559 | 24 | 181 | 0.0 | 0.0 | 0.00 | 0.00 | 0.00 | 69 | 1009.2 |
| 20260906093103 | 24 | 181 | 0.0 | 0.0 | 0.00 | 0.00 | 0.00 | 69 | 1009.4 |
| 20260906091540 | 25 | 181 | 0.0 | 0.0 | 0.00 | 0.00 | 0.00 | 68 | 1009.3 |
| 20260906090039 | 25 | 181 | 0.0 | 0.0 | 0.00 | 0.00 | 0.00 | 67 | 1009.3 |
| 20260906084536 | 25 | 181 | 0.0 | 0.0 | 0.00 | 0.00 | 0.00 | 66 | 1009.2 |
| 20260906083044 | 25 | 181 | 0.0 | 0.0 | 0.00 | 0.00 | 0.00 | 65 | 1009.1 |
| 20260906081537 | 26 | 181 | 0.0 | 0.0 | 0.00 | 0.00 | 0.00 | 64 | 1009.1 |
| 20260906080039 | 26 | 181 | 0.0 | 0.0 | 0.00 | 0.00 | 0.00 | 63 | 1009.2 |
| 20260906074533 | 26 | 181 | 0.0 | 0.0 | 0.00 | 0.00 | 0.00 | 62 | 1009.0 |
| 20260906073028 | 26 | 181 | 0.0 | 0.0 | 0.00 | 0.00 | 0.00 | 61 | 1009.0 |
| 20260906071525 | 26 | 181 | 0.0 | 0.0 | 0.00 | 0.00 | 0.00 | 61 | 1008.8 |
| 20260906070024 | 26 | 181 | 0.0 | 3.2 | 0.00 | 0.00 | 0.00 | 61 | 1008.7 |
| 20260906064523 | 27 | 181 | 0.0 | 0.0 | 0.00 | 0.00 | 0.00 | 61 | 1008.8 |
| 20260906063022 | 27 | 181 | 0.0 | 0.0 | 0.00 | 0.00 | 0.00 | 60 | 1008.8 |
| 20260906061526 | 27 | 181 | 0.0 | 0.0 | 0.00 | 0.00 | 0.00 | 60 | 1008.8 |
| 20260906060019 | 27 | 181 | 0.0 | 0.0 | 0.00 | 0.00 | 0.00 | 60 | 1008.9 |
| 20260906054519 | 27 | 181 | 0.0 | 0.0 | 0.00 | 0.00 | 0.00 | 59 | 1008.9 |
| 20260906053014 | 28 | 181 | 0.0 | 0.0 | 0.00 | 0.00 | 0.00 | 57 | 1009.0 |
| 20260906051512 | 28 | 181 | 0.0 | 0.0 | 0.00 | 0.00 | 0.00 | 56 | 1009.0 |
| 20260906050008 | 28 | 181 | 0.0 | 0.0 | 0.00 | 0.00 | 0.00 | 55 | 1008.7 |
| 20260906044509 | 28 | 181 | 0.0 | 1.6 | 0.00 | 0.00 | 0.00 | 55 | 1008.9 |
| 20260906043006 | 28 | 181 | 0.0 | 0.0 | 0.00 | 0.00 | 0.00 | 54 | 1008.8 |
| 20260906041503 | 29 | 181 | 0.0 | 0.0 | 0.00 | 0.00 | 0.00 | 53 | 1008.9 |
| 20260906040106 | 30 | 181 | 0.0 | 3.2 | 0.00 | 0.00 | 0.00 | 52 | 1008.9 |
| 20260906034603 | 30 | 181 | 0.0 | 3.2 | 0.00 | 0.00 | 0.00 | 52 | 1008.8 |
| 20260906033055 | 30 | 181 | 0.0 | 0.0 | 0.00 | 0.00 | 0.00 | 51 | 1008.7 |
| 20260906031553 | 31 | 181 | 0.0 | 3.2 | 0.00 | 0.00 | 0.00 | 50 | 1008.6 |
| 20260906030051 | 31 | 181 | 0.0 | 4.8 | 0.00 | 0.00 | 0.00 | 49 | 1008.5 |
| 20260906024551 | 31 | 181 | 0.0 | 4.8 | 0.00 | 0.00 | 0.00 | 48 | 1008.4 |
| 20260906023047 | 31 | 181 | 1.6 | 6.4 | 0.00 | 0.00 | 0.00 | 48 | 1008.1 |
| 20260906021547 | 31 | 181 | 0.0 | 4.8 | 0.00 | 0.00 | 0.00 | 48 | 1007.8 |
| 20260906020046 | 31 | 181 | 1.6 | 4.8 | 0.00 | 0.00 | 0.00 | 48 | 1007.6 |
| 20260906014613 | 32 | 181 | 0.0 | 1.6 | 0.00 | 0.00 | 0.00 | 47 | 1007.7 |
| 20260906013047 | 32 | 181 | 0.0 | 0.0 | 0.00 | 0.00 | 0.00 | 46 | 1007.4 |
| 20260906011541 | 33 | 181 | 0.0 | 0.0 | 0.00 | 0.00 | 0.00 | 45 | 1007.2 |
| 20260906010039 | 33 | 181 | 0.0 | 4.8 | 0.00 | 0.00 | 0.00 | 43 | 1007.1 |
| 20260906004537 | 34 | 181 | 0.0 | 4.8 | 0.00 | 0.00 | 0.00 | 42 | 1007.0 |
| 20260906003038 | 35 | 181 | 0.0 | 4.8 | 0.00 | 0.00 | 0.00 | 41 | 1006.8 |
| 20260906001536 | 35 | 181 | 0.0 | 6.4 | 0.00 | 0.00 | 0.00 | 40 | 1007.2 |
| 20260906000041 | 35 | 181 | 4.8 | 11.3 | 0.00 | 0.00 | 0.00 | 39 | 1007.1 |
| 20260905234537 | 36 | 181 | 0.0 | 9.7 | 0.00 | 0.00 | 0.00 | 38 | 1007.1 |
| 20260905233033 | 36 | 181 | 1.6 | 9.7 | 0.00 | 0.00 | 0.00 | 36 | 1007.1 |
| 20260905231530 | 37 | 182 | 3.2 | 14.5 | 0.00 | 0.00 | 0.00 | 35 | 1007.1 |
| 20260905230027 | 38 | 182 | 4.8 | 11.3 | 0.00 | 0.00 | 0.00 | 33 | 1007.2 |
| 20260905224526 | 38 | 182 | 4.8 | 11.3 | 0.00 | 0.00 | 0.00 | 34 | 1007.0 |
| 20260905223025 | 38 | 182 | 3.2 | 9.7 | 0.00 | 0.00 | 0.00 | 33 | 1007.1 |
| 20260905221525 | 38 | 184 | 3.2 | 12.9 | 0.00 | 0.00 | 0.00 | 34 | 1006.9 |
| 20260905220024 | 38 | 184 | 4.8 | 16.1 | 0.00 | 0.00 | 0.00 | 35 | 1007.0 |
| 20260905214526 | 38 | 186 | 4.8 | 11.3 | 0.00 | 0.00 | 0.00 | 35 | 1007.1 |
| 20260905213021 | 38 | 187 | 4.8 | 14.5 | 0.00 | 0.00 | 0.00 | 35 | 1007.2 |
| 20260905211533 | 38 | 186 | 1.6 | 16.1 | 0.00 | 0.00 | 0.00 | 36 | 1007.1 |
| 20260905210020 | 38 | 181 | 6.4 | 14.5 | 0.00 | 0.00 | 0.00 | 34 | 1007.3 |
| 20260905204524 | 38 | 176 | 3.2 | 14.5 | 0.00 | 0.00 | 0.00 | 34 | 1007.4 |
| 20260905203012 | 38 | 184 | 4.8 | 14.5 | 0.00 | 0.00 | 0.00 | 34 | 1008.0 |
| 20260905201508 | 38 | 197 | 1.6 | 14.5 | 0.00 | 0.00 | 0.00 | 35 | 1008.1 |
| 20260905200007 | 38 | 194 | 3.2 | 14.5 | 0.00 | 0.00 | 0.00 | 36 | 1008.5 |